Weather History for Branson West Muni - Emerson F, MO

Change the Weather History Date:

Thursday, August 21, 2014

  Actual Average (KHRO) Record (KHRO)
Temperature  
Mean Temperature 84 °F 77 °F  
Max Temperature 95 °F 89 °F 105 °F (1936)
Min Temperature 73 °F 66 °F 47 °F (1956)
Degree Days  
Heating Degree Days 0 0  
Month to date heating degree days 0  
Since 1 June heating degree days 6  
Since 1 July heating degree days 0  
Cooling Degree Days 19 12  
Month to date cooling degree days 284  
Year to date cooling degree days 1102  
Since 1 June cooling degree days 963  
Growing Degree Days 34 (Base 50)    
Moisture  
Dew Point 68 °F    
Average Humidity 62    
Maximum Humidity 83    
Minimum Humidity 36    
Precipitation  
Precipitation 0.00 in 0.10 in 1.37 in (1911)
Month to date precipitation 2.47  
Year to date precipitation 27.85  
Snow  
Snow 0.00 in 0.00 in - ()
Month to date snowfall 0.0  
Since 1 June snowfall 0.0  
Since 1 July snowfall 0.0  
Snow Depth -    
Sea Level Pressure  
Sea Level Pressure 30.04 in    
Wind  
Wind Speed 6 mph (SSW)    
Max Wind Speed 14 mph    
Max Gust Speed 22 mph    
Visibility 10 miles    
Events      
T = Trace of Precipitation, MM = Missing Value Source: NWS Daily Summary

Daily Weather History Graph

Daily Weather History Graph

Search for Another Location

Airport:

Trip Planner

Search our weather history database for the weather conditions in past years. The results will help you decide how hot, cold, wet, or windy it might be!

Date:

Astronomy

Aug. 21, 2014 Rise Set
Actual Time 6:35 AM CDT 7:56 PM CDT
Civil Twilight 6:08 AM CDT 8:23 PM CDT
Nautical Twilight 5:36 AM CDT 8:56 PM CDT
Astronomical Twilight 5:02 AM CDT 9:30 PM CDT
Moon 3:09 AM CDT 5:23 PM CDT
Length of Visible Light 14h 15m
Length of Day
13h 21m
Waning Crescent, 13% of the Moon is Illuminated
Aug 21
Waning Crescent
Aug 25
New
Sep 2
First Quarter
Sep 8
Full
Sep 15
Last Quarter

Hourly Weather History & Observations

Time (CDT) Temp. Heat Index Dew Point Humidity Pressure Visibility Wind Dir Wind Speed Gust Speed Precip Events Conditions
12:15 AM 77.0 °F - 66.2 °F 69% 30.03 in 10.0 mi South 4.6 mph - N/A   Clear
12:35 AM 77.0 °F - 66.2 °F 69% 30.03 in 10.0 mi South 3.5 mph - N/A   Clear
12:55 AM 77.0 °F - 66.2 °F 69% 30.03 in 10.0 mi South 3.5 mph - N/A   Clear
1:15 AM 75.2 °F - 66.2 °F 73% 30.03 in 10.0 mi SSW 4.6 mph - N/A   Clear
1:35 AM 75.2 °F - 68.0 °F 78% 30.02 in 10.0 mi SSW 3.5 mph - N/A   Clear
1:55 AM 75.2 °F - 68.0 °F 78% 30.02 in 10.0 mi South 3.5 mph - N/A   Clear
2:15 AM 75.2 °F - 68.0 °F 78% 30.02 in 10.0 mi South 5.8 mph - N/A   Clear
2:35 AM 75.2 °F - 68.0 °F 78% 30.02 in 10.0 mi SSW 4.6 mph - N/A   Clear
2:55 AM 75.2 °F - 68.0 °F 78% 30.03 in 10.0 mi South 3.5 mph - N/A   Clear
3:15 AM 75.2 °F - 68.0 °F 78% 30.03 in 10.0 mi SSW 3.5 mph - N/A   Clear
3:35 AM 75.2 °F - 68.0 °F 78% 30.03 in 10.0 mi South 3.5 mph - N/A   Clear
3:55 AM 73.4 °F - 68.0 °F 83% 30.02 in 10.0 mi SSW 4.6 mph - N/A   Clear
4:15 AM 75.2 °F - 68.0 °F 78% 30.03 in 10.0 mi South 3.5 mph - N/A   Clear
4:35 AM 75.2 °F - 68.0 °F 78% 30.03 in 10.0 mi South 4.6 mph - N/A   Clear
4:55 AM 73.4 °F - 68.0 °F 83% 30.03 in 10.0 mi South 5.8 mph - N/A   Clear
5:15 AM 75.2 °F - 68.0 °F 78% 30.04 in 10.0 mi SSW 4.6 mph - N/A   Clear
5:35 AM 73.4 °F - 68.0 °F 83% 30.04 in 10.0 mi South 5.8 mph - N/A   Clear
5:55 AM 75.2 °F - 68.0 °F 78% 30.04 in 10.0 mi SSW 5.8 mph - N/A   Clear
6:15 AM 75.2 °F - 68.0 °F 78% 30.05 in 10.0 mi SSW 6.9 mph - N/A   Clear
6:35 AM 75.2 °F - 68.0 °F 78% 30.05 in 10.0 mi SSW 5.8 mph - N/A   Clear
6:55 AM 75.2 °F - 68.0 °F 78% 30.05 in 10.0 mi SSW 6.9 mph - N/A   Clear
7:15 AM 75.2 °F - 69.8 °F 83% 30.05 in 10.0 mi SSW 4.6 mph - N/A   Clear
7:35 AM 75.2 °F - 69.8 °F 83% 30.05 in 10.0 mi South 5.8 mph - N/A   Clear
7:55 AM 77.0 °F - 69.8 °F 78% 30.06 in 10.0 mi SSW 4.6 mph - N/A   Clear
8:15 AM 77.0 °F - 69.8 °F 78% 30.07 in 10.0 mi SW 5.8 mph - N/A   Clear
8:35 AM 78.8 °F - 69.8 °F 74% 30.07 in 10.0 mi SSW 8.1 mph 16.1 mph N/A   Clear
8:55 AM 80.6 °F 83.9 °F 69.8 °F 70% 30.06 in 10.0 mi SW 11.5 mph 18.4 mph N/A   Clear
9:15 AM 80.6 °F 84.6 °F 71.6 °F 74% 30.07 in 10.0 mi SW 12.7 mph 19.6 mph N/A   Clear
9:35 AM 82.4 °F 87.2 °F 71.6 °F 70% 30.07 in 10.0 mi SW 11.5 mph 18.4 mph N/A   Clear
9:55 AM 82.4 °F 87.2 °F 71.6 °F 70% 30.07 in 10.0 mi SW 10.4 mph - N/A   Clear
10:15 AM 84.2 °F 89.6 °F 71.6 °F 66% 30.07 in 10.0 mi WSW 8.1 mph 19.6 mph N/A   Clear
10:35 AM 86.0 °F 90.4 °F 69.8 °F 58% 30.08 in 10.0 mi SW 6.9 mph 16.1 mph N/A   Clear
10:55 AM 87.8 °F 92.6 °F 69.8 °F 55% 30.08 in 10.0 mi South 4.6 mph 20.7 mph N/A   Clear
11:15 AM 89.6 °F 94.7 °F 69.8 °F 52% 30.08 in 10.0 mi SW 10.4 mph 19.6 mph N/A   Clear
11:35 AM 89.6 °F 93.4 °F 68.0 °F 49% 30.08 in 10.0 mi SSW 11.5 mph 21.9 mph N/A   Clear
12:15 PM 91.4 °F 94.0 °F 66.2 °F 43% 30.07 in 10.0 mi SSW 11.5 mph 17.3 mph N/A   Clear
12:35 PM 93.2 °F 96.2 °F 66.2 °F 41% 30.07 in 10.0 mi West 9.2 mph - N/A   Clear
12:55 PM 93.2 °F 96.2 °F 66.2 °F 41% 30.06 in 10.0 mi SSW 9.2 mph - N/A   Clear
1:15 PM 95.0 °F 98.5 °F 66.2 °F 39% 30.06 in 10.0 mi South 10.4 mph 17.3 mph N/A   Clear
1:35 PM 95.0 °F 98.5 °F 66.2 °F 39% 30.05 in 10.0 mi South 6.9 mph - N/A   Clear
1:55 PM 95.0 °F 98.5 °F 66.2 °F 39% 30.05 in 10.0 mi SW 8.1 mph - N/A   Clear
2:15 PM 95.0 °F 98.5 °F 66.2 °F 39% 30.04 in 10.0 mi SW 11.5 mph 17.3 mph N/A   Clear
2:35 PM 95.0 °F 98.5 °F 66.2 °F 39% 30.04 in 10.0 mi SW 13.8 mph 17.3 mph N/A   Clear
2:55 PM 95.0 °F 98.5 °F 66.2 °F 39% 30.03 in 10.0 mi SSW 10.4 mph 16.1 mph N/A   Partly Cloudy
3:15 PM 95.0 °F 97.0 °F 64.4 °F 36% 30.02 in 10.0 mi SSE 5.8 mph - N/A   Clear
3:35 PM 95.0 °F 98.5 °F 66.2 °F 39% 30.01 in 10.0 mi SSW 6.9 mph 16.1 mph N/A   Clear
3:55 PM 95.0 °F 97.0 °F 64.4 °F 36% 30.00 in 10.0 mi SW 10.4 mph 16.1 mph N/A   Clear
4:15 PM 95.0 °F 97.0 °F 64.4 °F 36% 30.00 in 10.0 mi SSW 4.6 mph - N/A   Partly Cloudy
4:35 PM 91.4 °F 94.0 °F 66.2 °F 43% 30.00 in 10.0 mi SSE 8.1 mph 19.6 mph N/A   Partly Cloudy
4:55 PM 93.2 °F 96.2 °F 66.2 °F 41% 30.00 in 10.0 mi South 12.7 mph 21.9 mph N/A   Partly Cloudy
5:15 PM 93.2 °F 96.2 °F 66.2 °F 41% 30.00 in 10.0 mi South 8.1 mph 17.3 mph N/A   Clear
5:35 PM 91.4 °F 94.0 °F 66.2 °F 43% 30.00 in 10.0 mi SSE 12.7 mph 20.7 mph N/A   Clear
5:55 PM 91.4 °F 94.0 °F 66.2 °F 43% 30.00 in 10.0 mi South 11.5 mph 18.4 mph N/A   Clear
6:35 PM 89.6 °F 91.1 °F 64.4 °F 43% 29.99 in 10.0 mi South 9.2 mph 16.1 mph N/A   Clear
6:55 PM 89.6 °F 91.1 °F 64.4 °F 43% 29.99 in 10.0 mi South 6.9 mph - N/A   Clear
7:15 PM 87.8 °F 90.4 °F 66.2 °F 49% 30.00 in 10.0 mi SSW 9.2 mph - N/A   Clear
7:35 PM 86.0 °F 88.2 °F 66.2 °F 51% 30.00 in 10.0 mi SSW 11.5 mph 16.1 mph N/A   Clear
7:55 PM 86.0 °F 89.4 °F 68.0 °F 55% 30.01 in 10.0 mi SSW 10.4 mph 18.4 mph N/A   Clear
8:15 PM 84.2 °F 87.3 °F 68.0 °F 58% 30.02 in 10.0 mi SSW 9.2 mph - N/A   Clear
8:35 PM 84.2 °F 87.3 °F 68.0 °F 58% 30.02 in 10.0 mi SSW 11.5 mph 19.6 mph N/A   Clear
8:55 PM 82.4 °F 85.4 °F 68.0 °F 62% 30.02 in 10.0 mi SSW 8.1 mph 17.3 mph N/A   Clear
9:15 PM 82.4 °F 85.4 °F 68.0 °F 62% 30.03 in 10.0 mi SW 8.1 mph 16.1 mph N/A   Clear
9:35 PM 82.4 °F 85.4 °F 68.0 °F 62% 30.04 in 10.0 mi SSW 6.9 mph - N/A   Clear
9:55 PM 80.6 °F 83.2 °F 68.0 °F 65% 30.04 in 10.0 mi SSW 6.9 mph - N/A   Clear
10:15 PM 80.6 °F 83.2 °F 68.0 °F 65% 30.05 in 10.0 mi SSW 6.9 mph - N/A   Clear
10:35 PM 80.6 °F 83.2 °F 68.0 °F 65% 30.04 in 10.0 mi SSW 6.9 mph - N/A   Clear
11:15 PM 80.6 °F 83.9 °F 69.8 °F 70% 30.05 in 10.0 mi SSW 9.2 mph - N/A   Clear
11:35 PM 80.6 °F 83.9 °F 69.8 °F 70% 30.05 in 10.0 mi SSW 6.9 mph - N/A   Clear
11:55 PM 78.8 °F - 69.8 °F 74% 30.05 in 10.0 mi SSW 5.8 mph - N/A   Clear